FW0527 Weather Reports


Display with metric or nautical units.
time (UTC)temp
F
wind
direction
speed
MPH
gust
MPH
rain 1hr
in
rain 24hr
in
rain mn
in
humidity
%
barometer
mb
20260505011509 51 328 0.0 4.0 0.00 0.00 0.00 72 1014.1
20260505010006 52 263 0.0 15.0 0.00 0.00 0.00 70 1014.2
20260505004506 52 298 0.0 11.0 0.00 0.00 0.00 68 1014.1
20260505003004 52 318 0.0 9.0 0.00 0.00 0.00 67 1014.2
20260505001503 52 278 0.0 13.0 0.00 0.00 0.00 67 1014.1
20260505000002 52 296 0.0 13.0 0.00 0.00 0.00 67 1014.3
20260504234502 52 341 0.0 11.0 0.00 0.00 0.00 66 1014.4
20260504233002 52 255 0.0 8.0 0.00 0.00 0.00 66 1014.3
20260504231501 53 267 0.0 12.0 0.00 0.00 0.00 65 1014.3
20260504224603 53 287 0.0 9.0 0.00 0.00 0.00 63 1014.3
20260504223100 54 304 0.0 15.0 0.00 0.00 0.00 63 1014.4
20260504221600 54 309 0.0 11.0 0.00 0.00 0.00 64 1014.4
20260504220121 54 299 0.0 6.0 0.00 0.00 0.00 63 1014.6
20260504214600 54 314 0.0 10.0 0.00 0.00 0.00 64 1014.7
20260504213102 55 309 0.0 4.0 0.00 0.00 0.00 61 1014.7
20260504211557 56 302 1.0 14.0 0.00 0.00 0.00 59 1014.7
20260504210056 57 304 0.0 14.0 0.00 0.00 0.00 59 1014.6
20260504204553 56 242 0.0 15.0 0.00 0.00 0.00 61 1014.6
20260504203051 56 333 0.0 13.0 0.00 0.00 0.00 62 1014.7
20260504201548 54 323 0.0 11.0 0.00 0.00 0.00 67 1014.8
20260504200050 53 308 0.0 11.0 0.00 0.00 0.00 66 1014.9
20260504194545 53 290 0.0 2.0 0.00 0.00 0.00 71 1014.9
20260504193037 52 324 0.0 10.0 0.00 0.00 0.00 70 1014.9
20260504191549 52 299 1.0 9.0 0.00 0.00 0.00 70 1014.7
20260504190031 51 306 0.0 3.0 0.00 0.00 0.00 74 1015.0
20260504184533 51 297 0.0 6.0 0.00 0.00 0.00 74 1015.0
20260504183039 50 292 0.0 6.0 0.00 0.00 0.00 75 1015.1
20260504181529 50 309 0.0 4.0 0.00 0.00 0.00 74 1015.1
20260504180029 50 293 0.0 9.0 0.00 0.00 0.00 72 1014.9
20260504174526 50 294 0.0 5.0 0.00 0.00 0.00 73 1014.8
20260504173027 50 246 0.0 9.0 0.00 0.00 0.00 73 1014.6
20260504171521 49 309 0.0 8.0 0.00 0.00 0.00 75 1014.4
20260504081524 45 306 2.0 10.0 0.00 0.00 0.00 90 1012.8
20260504060104 45 281 0.0 5.0 0.00 0.00 0.00 87 1011.9
20260504044602 46 302 1.0 8.0 0.00 0.00 0.00 88 1012.3
20260504043055 46 271 0.0 7.0 0.00 0.00 0.00 88 1012.1
20260504041551 47 309 0.0 8.0 0.00 0.00 0.00 87 1011.8
20260504034558 47 313 0.0 9.0 0.00 0.00 0.00 87 1012.0
20260504033114 47 313 0.0 5.0 0.00 0.00 0.00 87 1011.9
20260504031543 48 311 2.0 11.0 0.00 0.00 0.00 86 1011.7
20260504030046 48 312 0.0 5.0 0.00 0.00 0.00 85 1011.3
20260504024541 48 308 1.0 9.0 0.00 0.00 0.00 84 1011.2
20260504023055 49 338 0.0 15.0 0.00 0.00 0.00 82 1011.4
20260504021536 50 307 1.0 9.0 0.00 0.00 0.00 80 1011.2
20260504020038 50 274 1.0 11.0 0.00 0.00 0.00 78 1011.0
20260504014544 52 248 2.0 8.0 0.00 0.00 0.00 76 1010.8
20260504013043 54 312 0.0 1.0 0.00 0.00 0.00 75 1010.4